AEE333 LGSA-LGAV

Flight info

Callsign AEE333
Flight time 0h 32m
Altitude 21000
Route RUSOS UY144 MIL UL617 SOREV
Aircraft A321/M-SDE3FGHIRWY/LB1

Departure

Time 2026-05-08 08:12
Airport Chania International Airport (LGSA)

Arrival

Time 2026-05-08 08:45
Airport Athens Eleftherios Venizelos International Airport (LGAV)
Time Latitude Longitude Altitude Speed Heading
2026-05-08 07:45 35.53865 24.14065 453 ft 0 kts 21°
2026-05-08 07:51 35.53865 24.14064 452 ft 0 kts 21°
2026-05-08 08:02 35.53853 24.14059 453 ft 2 kts 20°
2026-05-08 08:02 35.53839 24.14052 453 ft 2 kts 21°
2026-05-08 08:02 35.53826 24.14043 453 ft 2 kts 40°
2026-05-08 08:02 35.53815 24.14030 453 ft 2 kts 53°
2026-05-08 08:03 35.53807 24.14014 453 ft 2 kts 68°
2026-05-08 08:03 35.53804 24.13997 453 ft 2 kts 83°
2026-05-08 08:03 35.53803 24.13978 453 ft 2 kts 97°
2026-05-08 08:03 35.53806 24.13964 453 ft 0 kts 109°
2026-05-08 08:04 35.53808 24.13957 453 ft 0 kts 111°
2026-05-08 08:05 35.53807 24.13961 453 ft 3 kts 111°
2026-05-08 08:06 35.53767 24.13997 457 ft 9 kts 184°
2026-05-08 08:06 35.53703 24.13976 460 ft 8 kts 186°
2026-05-08 08:06 35.53664 24.14034 461 ft 16 kts 116°
2026-05-08 08:06 35.53599 24.14228 462 ft 26 kts 112°
2026-05-08 08:07 35.53532 24.14431 462 ft 25 kts 112°
2026-05-08 08:07 35.53470 24.14624 462 ft 23 kts 111°
2026-05-08 08:07 35.53411 24.14804 463 ft 22 kts 112°
2026-05-08 08:07 35.53355 24.14975 463 ft 20 kts 111°
2026-05-08 08:08 35.53303 24.15136 464 ft 20 kts 112°
2026-05-08 08:08 35.53240 24.15329 466 ft 27 kts 111°
2026-05-08 08:08 35.53171 24.15540 469 ft 25 kts 111°
2026-05-08 08:08 35.53106 24.15739 474 ft 25 kts 112°
2026-05-08 08:09 35.53042 24.15936 479 ft 24 kts 112°
2026-05-08 08:09 35.52980 24.16126 483 ft 23 kts 111°
2026-05-08 08:09 35.52921 24.16309 487 ft 22 kts 111°
2026-05-08 08:09 35.52861 24.16497 491 ft 25 kts 111°
2026-05-08 08:10 35.52799 24.16689 492 ft 23 kts 111°
2026-05-08 08:10 35.52750 24.16839 494 ft 11 kts 112°
2026-05-08 08:10 35.52690 24.16873 496 ft 9 kts 198°
2026-05-08 08:10 35.52632 24.16843 498 ft 8 kts 202°
2026-05-08 08:11 35.52586 24.16819 500 ft 6 kts 213°
2026-05-08 08:11 35.52587 24.16776 500 ft 5 kts 292°
2026-05-08 08:11 35.52655 24.16567 499 ft 60 kts 291°
2026-05-08 08:11 35.52904 24.15798 485 ft 129 kts 291°
2026-05-08 08:12 35.53310 24.14559 505 ft 180 kts 291°
2026-05-08 08:12 35.53820 24.13012 796 ft 204 kts 292°
2026-05-08 08:12 35.54345 24.11425 1696 ft 201 kts 291°
2026-05-08 08:12 35.54859 24.09922 2586 ft 190 kts 302°
2026-05-08 08:13 35.55934 24.08957 2905 ft 204 kts 344°
2026-05-08 08:13 35.57393 24.08980 3181 ft 221 kts 14°
2026-05-08 08:13 35.58747 24.09948 3442 ft 237 kts 48°
2026-05-08 08:13 35.59673 24.11702 3695 ft 255 kts 61°
2026-05-08 08:14 35.60847 24.13415 4019 ft 275 kts 36°
2026-05-08 08:14 35.62556 24.14438 4737 ft 278 kts 19°
2026-05-08 08:14 35.64415 24.15159 5503 ft 280 kts 15°
2026-05-08 08:14 35.66266 24.15807 6237 ft 283 kts 15°
2026-05-08 08:15 35.68167 24.16476 6978 ft 286 kts 15°
2026-05-08 08:15 35.70061 24.17161 7716 ft 289 kts 15°
2026-05-08 08:15 35.72006 24.17880 8472 ft 293 kts 15°
2026-05-08 08:15 35.73934 24.18603 9215 ft 296 kts 15°
2026-05-08 08:16 35.75899 24.19350 9960 ft 299 kts 15°
2026-05-08 08:16 35.77884 24.20109 10647 ft 304 kts 14°
2026-05-08 08:16 35.79973 24.20904 11016 ft 321 kts 14°
2026-05-08 08:16 35.82150 24.21731 11320 ft 338 kts 14°
2026-05-08 08:17 35.84429 24.22598 11615 ft 354 kts 14°
2026-05-08 08:17 35.86840 24.23519 11969 ft 368 kts 14°
2026-05-08 08:17 35.89294 24.24460 12596 ft 373 kts 14°
2026-05-08 08:17 35.91749 24.25401 13284 ft 375 kts 14°
2026-05-08 08:18 35.94230 24.26355 13946 ft 377 kts 14°
2026-05-08 08:18 35.96735 24.27319 14584 ft 380 kts 14°
2026-05-08 08:18 35.99255 24.28289 15211 ft 383 kts 14°
2026-05-08 08:18 36.01815 24.29275 15830 ft 386 kts 14°
2026-05-08 08:19 36.04359 24.30257 16411 ft 389 kts 14°
2026-05-08 08:19 36.06937 24.31252 16990 ft 392 kts 14°
2026-05-08 08:19 36.09552 24.32262 17561 ft 395 kts 14°
2026-05-08 08:19 36.12192 24.33280 18120 ft 397 kts 14°
2026-05-08 08:20 36.14883 24.34318 18679 ft 400 kts 14°
2026-05-08 08:20 36.17427 24.35301 19208 ft 402 kts 13°
2026-05-08 08:20 36.20083 24.36310 19740 ft 403 kts 12°
2026-05-08 08:20 36.22783 24.37172 20260 ft 404 kts
2026-05-08 08:21 36.25533 24.37958 20779 ft 406 kts
2026-05-08 08:21 36.28294 24.38731 21094 ft 407 kts
2026-05-08 08:21 36.31044 24.39501 21141 ft 407 kts
2026-05-08 08:21 36.33785 24.40271 21149 ft 406 kts
2026-05-08 08:22 36.36522 24.41044 21152 ft 406 kts
2026-05-08 08:22 36.39290 24.41828 21154 ft 407 kts
2026-05-08 08:22 36.42021 24.42603 21154 ft 407 kts
2026-05-08 08:22 36.44776 24.43385 21155 ft 407 kts
2026-05-08 08:23 36.47522 24.44163 21155 ft 407 kts
2026-05-08 08:23 36.50272 24.44940 21155 ft 407 kts
2026-05-08 08:23 36.53009 24.45716 21155 ft 407 kts
2026-05-08 08:23 36.55748 24.46495 21157 ft 407 kts
2026-05-08 08:24 36.58523 24.47285 21160 ft 407 kts
2026-05-08 08:24 36.61274 24.48071 21164 ft 407 kts
2026-05-08 08:24 36.64039 24.48862 21168 ft 407 kts
2026-05-08 08:24 36.66779 24.49646 21172 ft 408 kts
2026-05-08 08:25 36.69536 24.50435 21176 ft 408 kts
2026-05-08 08:25 36.72288 24.51133 21173 ft 405 kts
2026-05-08 08:25 36.75093 24.51361 21176 ft 401 kts 355°
2026-05-08 08:25 36.77850 24.51064 21177 ft 397 kts 346°
2026-05-08 08:26 36.80517 24.50409 21180 ft 396 kts 344°
2026-05-08 08:26 36.83207 24.49667 21180 ft 396 kts 343°
2026-05-08 08:26 36.85900 24.48912 21181 ft 396 kts 343°
2026-05-08 08:26 36.88589 24.48166 21181 ft 396 kts 343°
2026-05-08 08:27 36.91253 24.47434 21181 ft 397 kts 343°
2026-05-08 08:27 36.93954 24.46698 21181 ft 397 kts 344°
2026-05-08 08:27 36.96620 24.45974 21181 ft 397 kts 344°
2026-05-08 08:27 36.99342 24.45235 21181 ft 397 kts 344°
2026-05-08 08:28 37.02036 24.44504 21181 ft 397 kts 344°
2026-05-08 08:28 37.04731 24.43770 21181 ft 398 kts 344°
2026-05-08 08:28 37.07427 24.43034 21181 ft 398 kts 344°
2026-05-08 08:28 37.10128 24.42298 21181 ft 398 kts 343°
2026-05-08 08:29 37.12801 24.41569 21094 ft 396 kts 344°
2026-05-08 08:29 37.15479 24.40842 20422 ft 399 kts 344°
2026-05-08 08:29 37.18205 24.40100 19444 ft 407 kts 343°
2026-05-08 08:29 37.20969 24.39348 18683 ft 408 kts 343°
2026-05-08 08:30 37.23727 24.38598 18008 ft 407 kts 343°
2026-05-08 08:30 37.26464 24.37853 17404 ft 405 kts 343°
2026-05-08 08:30 37.31908 24.36367 16277 ft 398 kts 343°
2026-05-08 08:31 37.34582 24.35637 15741 ft 395 kts 343°
2026-05-08 08:31 37.37245 24.34910 15202 ft 392 kts 344°
2026-05-08 08:31 37.39905 24.34184 14668 ft 388 kts 344°
2026-05-08 08:31 37.42515 24.33470 14138 ft 385 kts 344°
2026-05-08 08:32 37.45122 24.32757 13611 ft 382 kts 344°
2026-05-08 08:32 37.47686 24.32056 13092 ft 380 kts 344°
2026-05-08 08:32 37.50269 24.31348 12568 ft 377 kts 344°
2026-05-08 08:32 37.52784 24.30657 12055 ft 375 kts 344°
2026-05-08 08:33 37.55362 24.29966 11530 ft 373 kts 346°
2026-05-08 08:33 37.57880 24.29442 11023 ft 372 kts 349°
2026-05-08 08:33 37.60431 24.28975 10675 ft 364 kts 349°
2026-05-08 08:33 37.62885 24.28541 10474 ft 352 kts 349°
2026-05-08 08:34 37.65260 24.28119 10375 ft 339 kts 349°
2026-05-08 08:34 37.67535 24.27713 10274 ft 326 kts 349°
2026-05-08 08:34 37.69735 24.27319 10163 ft 315 kts 349°
2026-05-08 08:34 37.71882 24.26934 9873 ft 310 kts 349°
2026-05-08 08:35 37.73993 24.26552 9604 ft 304 kts 349°
2026-05-08 08:35 37.76067 24.26174 9320 ft 300 kts 350°
2026-05-08 08:35 37.78113 24.25803 9039 ft 295 kts 350°
2026-05-08 08:35 37.80132 24.25435 8751 ft 292 kts 350°
2026-05-08 08:36 37.82119 24.25077 8431 ft 290 kts 350°
2026-05-08 08:36 37.84094 24.24722 8081 ft 288 kts 349°
2026-05-08 08:36 37.86073 24.24363 7738 ft 287 kts 350°
2026-05-08 08:36 37.88042 24.24003 7354 ft 288 kts 350°
2026-05-08 08:37 37.90033 24.23643 6996 ft 287 kts 349°
2026-05-08 08:37 37.91995 24.23288 6668 ft 286 kts 349°
2026-05-08 08:37 37.93950 24.22933 6297 ft 281 kts 349°
2026-05-08 08:37 37.95866 24.22584 5800 ft 276 kts 349°
2026-05-08 08:38 37.97719 24.22196 5425 ft 269 kts 345°
2026-05-08 08:38 37.99508 24.21618 5091 ft 264 kts 339°
2026-05-08 08:38 38.01218 24.20843 4783 ft 260 kts 334°
2026-05-08 08:38 38.02836 24.19884 4485 ft 257 kts 328°
2026-05-08 08:39 38.04391 24.18733 4161 ft 263 kts 323°
2026-05-08 08:39 38.05902 24.17389 3652 ft 268 kts 319°
2026-05-08 08:39 38.07337 24.15885 3184 ft 266 kts 314°
2026-05-08 08:39 38.08620 24.14241 2995 ft 258 kts 301°
2026-05-08 08:40 38.09187 24.12240 2981 ft 233 kts 266°
2026-05-08 08:40 38.08813 24.10358 2978 ft 213 kts 234°
2026-05-08 08:40 38.07818 24.09012 2995 ft 210 kts 218°
2026-05-08 08:40 38.06658 24.07888 2987 ft 210 kts 216°
2026-05-08 08:41 38.05479 24.06806 2820 ft 211 kts 216°
2026-05-08 08:41 38.04292 24.05699 2542 ft 210 kts 216°
2026-05-08 08:41 38.03133 24.04575 2261 ft 210 kts 222°
2026-05-08 08:41 38.02269 24.03143 2004 ft 202 kts 243°
2026-05-08 08:42 38.01837 24.01488 1766 ft 197 kts 248°
2026-05-08 08:42 38.01061 24.00122 1486 ft 191 kts 215°
2026-05-08 08:42 37.99994 23.99276 1422 ft 170 kts 212°
2026-05-08 08:42 37.99084 23.98500 1367 ft 147 kts 216°
2026-05-08 08:43 37.98299 23.97757 1212 ft 138 kts 217°
2026-05-08 08:43 37.97534 23.97016 1017 ft 137 kts 218°
2026-05-08 08:43 37.96784 23.96282 794 ft 136 kts 217°
2026-05-08 08:43 37.96035 23.95579 671 ft 136 kts 216°
2026-05-08 08:44 37.95272 23.94866 487 ft 135 kts 217°
2026-05-08 08:44 37.94527 23.94149 310 ft 133 kts 217°
2026-05-08 08:44 37.93836 23.93493 288 ft 107 kts 217°
2026-05-08 08:44 37.93380 23.93061 288 ft 57 kts 217°
2026-05-08 08:45 37.93138 23.92863 288 ft 33 kts 200°
2026-05-08 08:45 37.92954 23.92828 288 ft 15 kts 160°
2026-05-08 08:45 37.92957 23.92937 288 ft 15 kts 39°
2026-05-08 08:45 37.93044 23.93020 288 ft 17 kts 37°
2026-05-08 08:46 37.93161 23.93131 288 ft 22 kts 37°
2026-05-08 08:46 37.93284 23.93248 288 ft 21 kts 37°
2026-05-08 08:46 37.93401 23.93360 288 ft 19 kts 37°
2026-05-08 08:46 37.93407 23.93475 288 ft 15 kts 124°
2026-05-08 08:47 37.93346 23.93582 288 ft 15 kts 127°
2026-05-08 08:47 37.93281 23.93692 288 ft 15 kts 127°
2026-05-08 08:47 37.93209 23.93813 288 ft 21 kts 127°
2026-05-08 08:47 37.93114 23.93967 288 ft 21 kts 126°
2026-05-08 08:48 37.93026 23.94120 288 ft 21 kts 127°
2026-05-08 08:48 37.92936 23.94271 288 ft 21 kts 127°
2026-05-08 08:48 37.92886 23.94398 288 ft 15 kts 74°
2026-05-08 08:48 37.92962 23.94486 288 ft 15 kts 36°
2026-05-08 08:49 37.93048 23.94566 288 ft 15 kts 36°
2026-05-08 08:49 37.93137 23.94649 288 ft 15 kts 36°
2026-05-08 08:49 37.93254 23.94761 288 ft 27 kts 37°
2026-05-08 08:49 37.93412 23.94910 288 ft 27 kts 37°
2026-05-08 08:50 37.93559 23.95051 288 ft 26 kts 37°
2026-05-08 08:50 37.93679 23.95146 288 ft 13 kts 353°
2026-05-08 08:50 37.93770 23.95132 288 ft 15 kts 35°
2026-05-08 08:50 37.93830 23.95151 288 ft 8 kts 313°
2026-05-08 08:51 37.93864 23.95094 288 ft 3 kts 307°
2026-05-08 08:51 37.93869 23.95087 288 ft 0 kts 307°